TimeCDT,TemperatureF,Dew PointF,Humidity,Sea Level PressureIn,VisibilityMPH,Wind Direction,Wind SpeedMPH,Gust SpeedMPH,PrecipitationIn,Events,Conditions,WindDirDegrees,DateUTC
12:56 AM,71.1,66.9,87,29.98,10.0,Calm,Calm,-,N/A,,Clear,0,2013-09-07 05:56:00
1:56 AM,69.1,66.9,93,29.97,10.0,Calm,Calm,-,N/A,,Clear,0,2013-09-07 06:56:00
2:56 AM,69.1,66.9,93,29.97,10.0,Calm,Calm,-,N/A,,Clear,0,2013-09-07 07:56:00
3:56 AM,69.1,66.0,90,29.96,10.0,Calm,Calm,-,N/A,,Clear,0,2013-09-07 08:56:00
4:56 AM,72.0,66.0,81,29.97,10.0,NE,4.6,-,N/A,,Clear,40,2013-09-07 09:56:00
5:56 AM,70.0,66.0,87,29.98,10.0,ENE,4.6,-,N/A,,Clear,60,2013-09-07 10:56:00
6:56 AM,69.1,66.0,90,29.99,10.0,Calm,Calm,-,N/A,,Clear,0,2013-09-07 11:56:00
7:56 AM,75.0,68.0,79,30.00,10.0,NE,3.5,-,N/A,,Clear,40,2013-09-07 12:56:00
8:56 AM,80.1,70.0,71,30.01,10.0,Calm,Calm,-,N/A,,Clear,0,2013-09-07 13:56:00
9:56 AM,86.0,70.0,59,30.02,10.0,Calm,Calm,-,N/A,,Clear,0,2013-09-07 14:56:00
10:56 AM,89.1,69.1,52,30.02,10.0,Variable,3.5,-,N/A,,Clear,0,2013-09-07 15:56:00
11:56 AM,90.0,69.1,50,30.01,10.0,ESE,4.6,-,N/A,,Partly Cloudy,120,2013-09-07 16:56:00
12:56 PM,90.0,69.1,50,29.99,10.0,Calm,Calm,-,N/A,,Scattered Clouds,0,2013-09-07 17:56:00
1:39 PM,89.6,68.0,49,30.02,10.0,Variable,3.5,-,N/A,Thunderstorm,Thunderstorm,0,2013-09-07 18:39:00
1:56 PM,89.1,68.0,50,29.98,10.0,Calm,Calm,-,N/A,Thunderstorm,Thunderstorm,0,2013-09-07 18:56:00
2:21 PM,84.2,69.8,62,30.02,10.0,SSE,9.2,-,N/A,,Mostly Cloudy,160,2013-09-07 19:21:00
2:56 PM,86.0,71.1,61,29.97,10.0,ESE,4.6,-,N/A,,Mostly Cloudy,120,2013-09-07 19:56:00
3:56 PM,87.1,72.0,61,29.95,10.0,Variable,6.9,-,N/A,,Partly Cloudy,0,2013-09-07 20:56:00
4:56 PM,87.1,69.1,55,29.94,10.0,South,9.2,-,N/A,,Mostly Cloudy,190,2013-09-07 21:56:00
5:27 PM,86.0,69.8,58,29.99,10.0,SSE,5.8,-,N/A,Thunderstorm,Thunderstorm,160,2013-09-07 22:27:00
5:43 PM,84.2,69.8,62,29.99,10.0,SSE,6.9,-,N/A,,Mostly Cloudy,150,2013-09-07 22:43:00
5:56 PM,82.9,70.0,65,29.94,10.0,South,4.6,-,N/A,,Mostly Cloudy,170,2013-09-07 22:56:00
6:56 PM,82.0,72.0,71,29.95,10.0,SSW,3.5,-,N/A,,Partly Cloudy,210,2013-09-07 23:56:00
7:56 PM,80.1,73.0,79,29.95,10.0,Calm,Calm,-,N/A,,Clear,0,2013-09-08 00:56:00
8:56 PM,77.0,72.0,84,29.97,10.0,Calm,Calm,-,N/A,,Clear,0,2013-09-08 01:56:00
9:56 PM,77.0,72.0,84,29.97,10.0,East,3.5,-,N/A,,Clear,80,2013-09-08 02:56:00
10:56 PM,77.0,72.0,84,29.97,10.0,Calm,Calm,-,N/A,,Clear,0,2013-09-08 03:56:00
11:56 PM,73.9,71.1,91,29.97,10.0,Calm,Calm,-,N/A,,Clear,0,2013-09-08 04:56:00